Roswell, NM

3:28 PM MDT on April 25, 2018 (GMT -0600)
Roswell Industrial

Weather History for KROW - February, 2014

Change the Weather History Date:

Tuesday, February 25, 2014

  Actual Average Record
Temperature  
Mean Temperature 44 °F 48 °F  
Max Temperature 54 °F 63 °F 85 °F (1986)
Min Temperature 34 °F 33 °F -1 °F (1960)
Degree Days  
Heating Degree Days 21 17  
Month to date heating degree days 462 491  
Since 1 July heating degree days 2659 2657  
Cooling Degree Days 0 0  
Month to date cooling degree days 0 0  
Year to date cooling degree days 0 0  
Moisture  
Dew Point 26 °F    
Average Humidity 44    
Maximum Humidity 64    
Minimum Humidity 24    
Precipitation  
Precipitation 0.00 in 0.01 in 0.89 in (1912)
Month to date precipitation 0.02 0.37  
Year to date precipitation 0.02 0.75  
Sea Level Pressure  
Sea Level Pressure 29.98 in    
Wind  
Wind Speed 11 mph (ENE)    
Max Wind Speed 28 mph    
Max Gust Speed 35 mph    
Visibility 10 miles    
Events      
T = Trace of Precipitation, MM = Missing Value Source: NWS Daily Summary

Daily Weather History Graph

Daily Weather History Graph

Search for Another Location

Airport or City:

Astronomy

Feb. 25, 2014 Rise Set
Actual Time 6:30 AM MST 5:51 PM MST
Civil Twilight 6:05 AM MST 6:16 PM MST
Nautical Twilight 5:37 AM MST 6:45 PM MST
Astronomical Twilight 5:08 AM MST 7:14 PM MST
Moon 3:19 AM MST 2:08 PM MST
Length of Visible Light 12h 10m
Length of Day
11h 20m
Waning Crescent, 17% of the Moon is Illuminated
Feb 25
Waning Crescent
Mar 1
New
Mar 8
First Quarter
Mar 16
Full
Mar 23
Last Quarter

Hourly Weather History & Observations

Time (MST) Temp. Windchill Dew Point Humidity Pressure Visibility Wind Dir Wind Speed Gust Speed Precip Events Conditions
12:51 AM 53.1 °F - 21.0 °F 29% 29.88 in 10.0 mi South 4.6 mph - N/A   Clear
1:51 AM 52.0 °F - 21.9 °F 31% 29.87 in 10.0 mi NW 4.6 mph - N/A   Clear
2:51 AM 53.1 °F - 17.1 °F 24% 29.86 in 10.0 mi NNW 8.1 mph - N/A   Clear
3:51 AM 51.1 °F - 18.0 °F 27% 29.86 in 10.0 mi North 11.5 mph - N/A   Clear
4:51 AM 46.0 °F 38.0 °F 21.9 °F 39% 29.92 in 10.0 mi North 21.9 mph 33.4 mph N/A   Scattered Clouds
5:51 AM 37.0 °F 27.7 °F 21.9 °F 54% 30.06 in 9.0 mi North 16.1 mph - N/A   Partly Cloudy
6:51 AM 34.0 °F 21.8 °F 21.0 °F 59% 30.11 in 10.0 mi North 23.0 mph 26.5 mph N/A   Clear
7:51 AM 34.0 °F 22.7 °F 23.0 °F 64% 30.14 in 10.0 mi North 19.6 mph - N/A   Clear
8:51 AM 35.1 °F 24.8 °F 23.0 °F 61% 30.14 in 10.0 mi North 17.3 mph - N/A   Clear
9:51 AM 37.0 °F 28.5 °F 24.1 °F 59% 30.14 in 10.0 mi North 13.8 mph - N/A   Clear
10:51 AM 39.9 °F 34.5 °F 25.0 °F 55% 30.12 in 10.0 mi North 8.1 mph - N/A   Clear
11:51 AM 43.0 °F 40.3 °F 26.1 °F 51% 30.06 in 10.0 mi Variable 4.6 mph - N/A   Clear
12:51 PM 45.0 °F - 27.0 °F 49% 30.00 in 10.0 mi Calm Calm - N/A   Clear
1:51 PM 46.9 °F - 28.0 °F 48% 29.94 in 10.0 mi Variable 3.5 mph - N/A   Clear
2:51 PM 51.1 °F - 28.0 °F 41% 29.89 in 10.0 mi SSE 6.9 mph - N/A   Clear
3:51 PM 53.1 °F - 28.9 °F 40% 29.87 in 10.0 mi SSE 8.1 mph - N/A   Clear
4:51 PM 54.0 °F - 28.0 °F 37% 29.88 in 10.0 mi South 10.4 mph - N/A   Clear
5:51 PM 53.1 °F - 28.9 °F 40% 29.90 in 10.0 mi South 11.5 mph - N/A   Clear
6:51 PM 51.1 °F - 28.9 °F 43% 29.93 in 10.0 mi South 10.4 mph - N/A   Clear
7:51 PM 51.1 °F - 28.0 °F 41% 29.94 in 10.0 mi South 10.4 mph - N/A   Clear
8:51 PM 50.0 °F - 27.0 °F 41% 29.95 in 10.0 mi South 10.4 mph - N/A   Clear
9:51 PM 48.9 °F - 27.0 °F 43% 29.95 in 10.0 mi SSE 8.1 mph - N/A   Clear
10:51 PM 48.9 °F - 30.0 °F 48% 29.94 in 10.0 mi South 9.2 mph - N/A   Clear
11:43 PM 48.0 °F - 37.0 °F 66% 30.06 in 9.0 mi ENE 17.3 mph 28.8 mph N/A   Mostly Cloudy
11:51 PM 48.9 °F - 37.0 °F 64% 30.01 in 10.0 mi ENE 16.1 mph - N/A   Overcast